{"data":{"norad_id":66460,"epoch":"2026-09-20T07:35:51.648000Z","epoch_age_seconds":106234,"freshness":"FRESH","line1":"1 66460U 25262E   26263.31657000  .00009500  00000+0  35441-3 0  9993","line2":"2 66460  42.9984 276.8850 0001774 272.0765  87.9883 15.27568135 48675","mean_motion":15.27568135,"eccentricity":0.0001774,"inclination_deg":42.9984,"raan_deg":276.885,"arg_perigee_deg":272.0765,"mean_anomaly_deg":87.9883,"bstar":0.00035441,"rev_number":4867,"period_min":94.267480906834,"perigee_km":481.86744363187,"apogee_km":484.30180506419,"semimajor_km":6861.221624348,"source":"CELESTRAK","updated_at":"2026-09-21T09:00:35.913109Z"}}